Change the Weather History Date:

Saturday, February 9, 2013

  Actual Average Record
Temperature  
Mean Temperature 57 °F -  
Max Temperature 64 °F 64 °F 78 °F (2005)
Min Temperature 50 °F 47 °F 39 °F (2006)
Degree Days  
Heating Degree Days 8    
Growing Degree Days 7 (Base 50)    
Moisture  
Dew Point 46 °F    
Average Humidity 68    
Maximum Humidity 90    
Minimum Humidity 44    
Precipitation  
Precipitation 0.00 in - - ()
Sea Level Pressure  
Sea Level Pressure 30.21 in    
Wind  
Wind Speed 9 mph (NNE)    
Max Wind Speed 16 mph    
Max Gust Speed 24 mph    
Visibility 10 miles    
Events      
Averages and records for this station are not official NWS values.
T = Trace of Precipitation, MM = Missing Value Source: NWS Daily Summary

Daily Weather History Graph

Daily Weather History Graph

Search for Another Location

Airport or City:

Trip Planner

Search our weather history database for the weather conditions in past years. The results will help you decide how hot, cold, wet, or windy it might be!

Date:

Astronomy

Feb. 09, 2013 Rise Set
Actual Time 7:11 AM EST 6:10 PM EST
Civil Twilight 6:46 AM EST 6:35 PM EST
Nautical Twilight 6:18 AM EST 7:03 PM EST
Astronomical Twilight 5:50 AM EST 7:31 PM EST
Moon 6:23 AM EST (2/9) 5:49 PM EST (2/9)
Length of Visible Light 11h 48m
Length of Day
10h 58m
Waning Crescent, 0% of the Moon is Illuminated
Feb 9
Waning Crescent
Feb 10
New
Feb 17
First Quarter
Feb 25
Full
Mar 4
Last Quarter

Hourly Weather History & Observations

Time (EST) Temp. Dew Point Humidity Pressure Visibility Wind Dir Wind Speed Gust Speed Precip Events Conditions
12:53 AM 55.0 °F 51.1 °F 86% 30.09 in 10.0 mi NW 4.6 mph - N/A   Clear
1:53 AM 54.0 °F 51.1 °F 90% 30.10 in 10.0 mi NW 4.6 mph - N/A   Clear
2:53 AM 55.0 °F 51.1 °F 86% 30.11 in 10.0 mi NNW 13.8 mph - N/A   Clear
3:53 AM 53.1 °F 50.0 °F 89% 30.12 in 10.0 mi NNW 12.7 mph - N/A   Clear
4:53 AM 52.0 °F 48.0 °F 86% 30.14 in 10.0 mi NNW 11.5 mph - N/A   Clear
5:53 AM 52.0 °F 46.9 °F 83% 30.17 in 10.0 mi North 15.0 mph - N/A   Clear
6:53 AM 51.1 °F 45.0 °F 80% 30.18 in 10.0 mi North 16.1 mph - N/A   Partly Cloudy
7:53 AM 50.0 °F 45.0 °F 83% 30.20 in 10.0 mi North 13.8 mph - N/A   Partly Cloudy
8:53 AM 52.0 °F 46.0 °F 80% 30.21 in 10.0 mi North 8.1 mph - N/A   Scattered Clouds
9:53 AM 54.0 °F 48.0 °F 80% 30.25 in 10.0 mi NNW 6.9 mph - N/A   Scattered Clouds
10:53 AM 60.1 °F 50.0 °F 69% 30.25 in 10.0 mi NNE 8.1 mph - N/A   Scattered Clouds
11:53 AM 63.0 °F 48.0 °F 58% 30.25 in 10.0 mi NNE 15.0 mph - N/A   Scattered Clouds
12:53 PM 64.0 °F 46.0 °F 52% 30.24 in 10.0 mi NNE 11.5 mph - N/A   Partly Cloudy
1:53 PM 64.0 °F 43.0 °F 46% 30.22 in 10.0 mi NE 12.7 mph - N/A   Scattered Clouds
2:53 PM 64.0 °F 44.1 °F 48% 30.22 in 10.0 mi ENE 11.5 mph 24.2 mph N/A   Scattered Clouds
3:53 PM 63.0 °F 42.1 °F 46% 30.22 in 10.0 mi ENE 10.4 mph - N/A   Scattered Clouds
4:53 PM 62.1 °F 39.9 °F 44% 30.24 in 10.0 mi ENE 10.4 mph - N/A   Partly Cloudy
5:53 PM 60.1 °F 39.0 °F 46% 30.24 in 10.0 mi ENE 11.5 mph - N/A   Scattered Clouds
6:53 PM 57.9 °F 41.0 °F 53% 30.23 in 10.0 mi NE 5.8 mph - N/A   Scattered Clouds
7:53 PM 57.0 °F 43.0 °F 59% 30.25 in 10.0 mi NNE 6.9 mph - N/A   Partly Cloudy
8:53 PM 57.0 °F 45.0 °F 64% 30.26 in 10.0 mi NNE 6.9 mph - N/A   Clear
9:53 PM 57.0 °F 46.0 °F 67% 30.27 in 10.0 mi NNE 8.1 mph - N/A   Clear
10:53 PM 55.9 °F 46.0 °F 69% 30.26 in 10.0 mi NE 8.1 mph - N/A   Clear
11:53 PM 57.0 °F 46.9 °F 69% 30.26 in 10.0 mi ENE 6.9 mph - N/A   Clear